Hourly Data Report for September 15, 2017

All times are specified in Local Standard Time (LST). Add 1 hour to adjust for Daylight Saving Time where and when it is observed.

CAPE DORSET A
NUNAVUT

64°13'49.000" N
76°31'30.000" W
48.20 m
2400637
71366
YTE

Related Data

No related data is available for this station

Download Data

Hourly Data (September 2017)
Hourly Data Report for September 15, 2017
Temp Definition
°C
Dew Point Temp Definition
°C
Rel Hum Definition
%
Wind Dir Definition
10's deg

Wind Spd Definition
km/h
Visibility Definition
km
Stn Press Definition
kPa
Hmdx Definition


Wind Chill Definition


Weather Definition


TIME
00:00 Legend Double Dagger 1.8 -0.7 84 34 13 16.1 100.16     LegendNANA
01:00 Legend Double Dagger 1.9 -0.7 83 29 11 16.1 100.21     LegendNANA
02:00 Legend Double Dagger 1.9 -1.2 80 31 15 16.1 100.25     LegendNANA
03:00 Legend Double Dagger 0.1 -1.1 92 30 21 16.1 100.27     LegendNANA
04:00 Legend Double Dagger -0.3 -1.2 94 26 24 16.1 100.31   -6 LegendNANA
05:00 Legend Double Dagger -0.3 -1.3 93 28 22 16.1 100.35   -6 LegendNANA
06:00 Legend Double Dagger -0.4 -1.4 93 26 18 16.1 100.38   -5 LegendNANA
07:00 Legend Double Dagger -0.4 -1.7 91 23 15 16.1 100.41   -5 LegendNANA
08:00 Legend Double Dagger 0.8 -1.7 83 28 21 16.1 100.44     LegendNANA
09:00 Legend Double Dagger 1.2 -1.6 82 28 21 16.1 100.47     LegendNANA
10:00 Legend Double Dagger 1.5 -1.3 82 28 21 16.1 100.47     LegendNANA
11:00 Legend Double Dagger 2.4 -1.8 74 28 15 16.1 100.49     LegendNANA
12:00 Legend Double Dagger 3.3 -1.9 69 29 15 16.1 100.51     LegendNANA
13:00 Legend Double Dagger 3.5 -2.4 65 29 17 16.1 100.53     LegendNANA
14:00 Legend Double Dagger 3.7 -2.2 66 28 21 16.1 100.55     LegendNANA
15:00 Legend Double Dagger 4.1 -1.8 65 30 18 16.1 100.58     LegendNANA
16:00 Legend Double Dagger 3.4 -1.3 72 30 17 16.1 100.60     LegendNANA
17:00 Legend Double Dagger 2.6 -1.6 74 29 17 16.1 100.63     LegendNANA
18:00 Legend Double Dagger 2.3 -1.8 74 29 15 16.1 100.65     LegendNANA
19:00 Legend Double Dagger 1.7 -1.4 80 29 15 16.1 100.69     LegendNANA
20:00 Legend Double Dagger 1.3 -1.2 84 30 15 16.1 100.71     LegendNANA
21:00 Legend Double Dagger 0.8 -1.1 87 29 13 16.1 100.72     LegendNANA
22:00 Legend Double Dagger 0.0 -1.6 89 29 21 16.1 100.71   -5 LegendNANA
23:00 Legend Double Dagger -0.2 -1.6 90 29 17 16.1 100.75   -5 LegendNANA

Notes on Data Quality.

Legend

  • E = Estimated
  • M = Missing
  • NA = Not Available
  • ‡ = Partner data that is not subject to review by the National Climate Archives
Date modified: